Regional Weather Roundup
Issued by NWS

Home | Current Version | Previous Version | Text Only | Print | Product List | Glossary Off
Versions: 1 2 3 4 5 6 7 8 9 10 11 12 13 14 15 16 17 18 19 20 21 22 23 24 25 26 27 28 29 30 31 32 33 34 35 36 37 38 39 40 41 42 43 44 45 46 47 48 49 50

000
ASUS43 KLOT 260958
RWRIL

ILLINOIS REGIONAL WEATHER ROUNDUP
NATIONAL WEATHER SERVICE CHICAGO/ROMEOVILLE IL
500 AM CDT SAT JUL 26 2014

NOTE: "FAIR" INDICATES FEW OR NO CLOUDS BELOW 12,000 FEET WITH NO
SIGNIFICANT WEATHER AND/OR OBSTRUCTIONS TO VISIBILITY.

* THESE STATIONS ARE NOT UNDER NWS QUALITY CONTROL. THEY ALSO MAY NOT
  REPORT WEATHER SUCH AS PRECIPITATION OR FOG.

ILZ001-002-007-009-015-016-024-261100-
NORTHWEST ILLINOIS

CITY           SKY/WX    TMP DP  RH WIND       PRES   REMARKS
MOLINE         CLEAR     65  62  90 E5        29.80F
$$

ILZ003-004-008-010-011-017-018-261100-
NORTH CENTRAL ILLINOIS

CITY           SKY/WX    TMP DP  RH WIND       PRES   REMARKS
ROCKFORD       NOT AVBL
$$

ILZ005-006-012>014-019>023-261100-
NORTHEAST ILLINOIS

CITY           SKY/WX    TMP DP  RH WIND       PRES   REMARKS
CHICAGO-OHARE  CLOUDY    69  58  67 SW6       29.85F
CHICAGO-MIDWAY CLOUDY    71  61  70 SW7       29.86S
AURORA         CLOUDY    67  61  81 S6        29.85F
WAUKEGAN       PTCLDY    64  59  83 SW6       29.85F
DUPAGE AIRPORT CLOUDY    68  60  75 S7        29.85S
WHEELING       MOCLDY    69  60  73 S5        29.87S
NORTHERLY ISL    N/A     69  58  67 S7          N/A
$$

LMZ740>746-261100-
SOUTHERN LAKE MICHIGAN

STATION/POSITION SKY/WX   TEMP    WIND        PRES    VSBY  WAVE
                          AIR SEA DIR/SP/G                  HT/PER
                          (F)     (DEG/KT/KT) (MB)    (MI)  (FT/S)
SOUTHERN BUOY              63 61  190/  6/  8 1011.6F         1
WAUKEGAN HARBOR            66     210/  2/  3   N/A
HARRISON CRIB              69     200/ 14/ 17   N/A
BURNHAM HARBOR             69     180/  7/  8   N/A
CALUMET HARBOR             69     210/  5/  8 1010.3F
BURNS HARBOR               67     190/  8/ 11 1011.9
MICHIGAN CITY              65     160/  4/  6   N/A
MICHIGAN CITY 6N           66 68  170/  4/  6   N/A           0
ST. JOSEPH                 66 66  160/  8/ 12   N/A           1/ 2
$$

ILZ025>027-034>036-040-047-049-050-058-095>099-261100-
WEST-CENTRAL ILLINOIS

CITY           SKY/WX    TMP DP  RH WIND       PRES   REMARKS
$$

ILZ028>032-037-038-041>044-048-051>054-059>061-261100-
CENTRAL ILLINOIS

CITY           SKY/WX    TMP DP  RH WIND       PRES   REMARKS
PEORIA         PTCLDY    69  63  81 S8        29.83S
SPRINGFIELD    PTCLDY    70  64  81 S9        29.85F
TAYLORVILLE    NOT AVBL
$$

ILZ033-039-045-046-055>057-062-063-261100-
EAST-CENTRAL ILLINOIS

CITY           SKY/WX    TMP DP  RH WIND       PRES   REMARKS
CHAMPAIGN      CLOUDY    68  62  81 S9        29.88F
MATTOON        CLOUDY    69  62  78 S13       29.88F
$$

ILZ079-100>102-261100-
SOUTHWEST ILLINOIS

CITY           SKY/WX    TMP DP  RH WIND       PRES   REMARKS
CAHOKIA*       MOCLDY    69  65  86 S7        29.89S
$$

ILZ064>066-069>071-074>076-080>082-084>086-088>090-092>094-261100-
SOUTH-CENTRAL ILLINOIS

CITY           SKY/WX    TMP DP  RH WIND       PRES   REMARKS
CARBONDALE     CLEAR     65  63  93 CALM      29.94S
$$

ILZ067-068-072-073-078-083-087-091-261100-
SOUTHEAST ILLINOIS

CITY           SKY/WX    TMP DP  RH WIND       PRES   REMARKS
LAWRENCEVILLE  MOCLDY    65  61  87 S5        29.94S
$$

ABBREVIATIONS USED IN REMARKS
   TC - TEMPERATURE IN CELSIUS
  WCI - WIND CHILL INDEX
   HX - HEAT INDEX
  VSB - VISIBILITY
$$



USA.gov is the U.S. government's official web portal to all federal, state and local government web resources and services.